Skip Page Navigation
NASA JPL Caltech
NASA Logo - Jet Propulsion Laboratory + View the NASA Portal
+ Center for Near-Earth Object Studies
JPL Home Earth Solar System Stars & Galaxies Technology
JPL Solar System Dynamics
BODIES ORBITS EPHEMERIDES TOOLS PHYSICAL DATA DISCOVERY FAQ SITE MAP
JPL Small-Body Database Browser
Search: [ help ]  
(2016 BW14)
Classification: Aten [NEO]          SPK-ID: 3740929
Ephemeris | Orbit Diagram | Orbital Elements | Mission Design | Physical Parameters | Close-Approach Data ]

[ show orbit diagram ]
Orbital Elements at Epoch 2459000.5 (2020-May-31.0) TDB
Reference: JPL 7 (heliocentric ecliptic J2000)
 Element Value Uncertainty (1-sigma)   Units 
e .1932592120272391 0.00022874  
a .8914320495868128 8.3222e-05 au
q .7191545941078386 0.00027104 au
i 7.581162977614277 0.010462 deg
node 127.6872140227789 0.00080442 deg
peri 156.42325322 0.0010008 deg
M 269.8828158416088 0.27655 deg
tp 2459077.454833963135
(2020-Aug-15.95483396)
0.24694 TDB
period 307.4190620296789
0.84
0.04305
0.0001179
d
yr
n 1.171039940149335 0.00016399 deg/d
Q 1.063709505065787 9.9306e-05 au
  Orbit Determination Parameters
   # obs. used (total)      52  
   data-arc span      13 days  
   first obs. used      2016-01-28  
   last obs. used      2016-02-10  
   planetary ephem.      DE431  
   SB-pert. ephem.      SB431-N16  
   condition code      6  
   norm. resid. RMS      .47892  
   source      ORB  
   producer      Otto Matic  
   solution date      2017-Apr-06 08:28:53  

Additional Information
 Earth MOID = .0414554 au 
 Jupiter MOID = 4.02989 au 
 T_jup = 6.642 
[ show covariance matrix ]

Ephemeris | Orbit Diagram | Orbital Elements | Mission Design | Physical Parameters | Close-Approach Data ]

Physical Parameter Table
Parameter Symbol Value Units Sigma Reference Notes
absolute magnitude H 25.8   n/a MPO365076  

[ show close-approach data ]
Ephemeris | Orbit Diagram | Orbital Elements | Mission Design | Physical Parameters | Close-Approach Data ]
ABOUT SSD CREDITS/AWARDS PRIVACY/COPYRIGHT GLOSSARY LINKS
FirstGov 2020-Nov-28 16:13 UT
(server date/time)  
NASA Home Page
Site Manager:   Ryan S. Park
Webmaster  Alan B. Chamberlin